Weather History for Mobridge, SD

Change the Weather History Date:

Monday, September 30, 2013

  Actual Average Record
Temperature  
Mean Temperature 62 °F 54 °F  
Max Temperature 79 °F 67 °F 92 °F (1989)
Min Temperature 44 °F 41 °F 24 °F (1939)
Degree Days  
Heating Degree Days 3 11  
Month to date heating degree days 70 187  
Since 1 July heating degree days 83 220  
Cooling Degree Days 0 0  
Month to date cooling degree days 116 60  
Year to date cooling degree days 700 641  
Growing Degree Days 12 (Base 50)    
Moisture  
Dew Point 46 °F    
Average Humidity 62    
Maximum Humidity 93    
Minimum Humidity 30    
Precipitation  
Precipitation T in 0.05 in 0.38 in (1983)
Month to date precipitation 3.37 1.54  
Year to date precipitation 17.19 15.45  
Sea Level Pressure  
Sea Level Pressure 29.55 in    
Wind  
Wind Speed 7 mph (WNW)    
Max Wind Speed 22 mph    
Max Gust Speed 38 mph    
Visibility 10 miles    
Events      
T = Trace of Precipitation, MM = Missing Value Source: NWS Daily Summary

Daily Weather History Graph

Daily Weather History Graph

Search for Another Location

Airport:

Trip Planner

Search our weather history database for the weather conditions in past years. The results will help you decide how hot, cold, wet, or windy it might be!

Date:

Astronomy

Sep. 30, 2013 Rise Set
Actual Time 7:38 AM CDT 7:23 PM CDT
Civil Twilight 7:09 AM CDT 7:52 PM CDT
Nautical Twilight 6:34 AM CDT 8:27 PM CDT
Astronomical Twilight 5:59 AM CDT 9:01 PM CDT
Moon 3:06 AM CDT (9/30) 5:04 PM CDT (9/30)
Length of Visible Light 12h 43m
Length of Day
11h 44m
Waning Crescent, 19% of the Moon is Illuminated
Sep 30
Waning Crescent
Oct 4
New
Oct 11
First Quarter
Oct 18
Full
Oct 26
Last Quarter

Hourly Weather History & Observations

Time (CDT) Temp. Dew Point Humidity Pressure Visibility Wind Dir Wind Speed Gust Speed Precip Events Conditions
12:52 AM 55.0 °F 48.9 °F 80% 29.54 in 10.0 mi SE 4.6 mph - N/A   Clear
1:52 AM 51.1 °F 46.9 °F 86% 29.57 in 10.0 mi NNW 4.6 mph - N/A   Clear
2:52 AM 51.1 °F 46.9 °F 86% 29.57 in 10.0 mi North 4.6 mph - N/A   Clear
3:52 AM 46.9 °F 44.1 °F 90% 29.55 in 10.0 mi Calm Calm - N/A   Clear
4:52 AM 51.1 °F 46.9 °F 86% 29.57 in 10.0 mi NNW 11.5 mph - N/A   Clear
5:52 AM 48.9 °F 46.0 °F 90% 29.58 in 10.0 mi North 8.1 mph - N/A   Clear
6:52 AM 46.9 °F 45.0 °F 93% 29.60 in 10.0 mi NNW 3.5 mph - N/A   Clear
7:52 AM 44.1 °F 43.0 °F 96% 29.62 in 10.0 mi Calm Calm - N/A   Clear
8:52 AM 52.0 °F 48.9 °F 89% 29.59 in 10.0 mi North 3.5 mph - N/A   Clear
9:52 AM 57.0 °F 48.9 °F 74% 29.59 in 10.0 mi Calm Calm - N/A   Clear
10:52 AM 61.0 °F 48.0 °F 62% 29.58 in 10.0 mi South 4.6 mph - N/A   Clear
11:52 AM 66.0 °F 46.0 °F 48% 29.56 in 10.0 mi SSE 6.9 mph - N/A   Clear
12:52 PM 70.0 °F 44.1 °F 39% 29.53 in 10.0 mi SSE 9.2 mph - N/A   Clear
1:52 PM 73.0 °F 45.0 °F 37% 29.52 in 10.0 mi SSE 10.4 mph - N/A   Clear
2:52 PM 75.9 °F 43.0 °F 31% 29.48 in 10.0 mi South 8.1 mph - N/A   Clear
3:52 PM 75.9 °F 43.0 °F 31% 29.47 in 10.0 mi South 4.6 mph - N/A   Clear
4:52 PM 79.0 °F 45.0 °F 30% 29.45 in 10.0 mi South 9.2 mph - N/A   Clear
5:52 PM 78.1 °F 45.0 °F 31% 29.44 in 10.0 mi South 3.5 mph - N/A   Clear
6:52 PM 72.0 °F 50.0 °F 46% 29.45 in 10.0 mi Calm Calm - N/A   Clear
7:52 PM 63.0 °F 48.0 °F 58% 29.48 in 10.0 mi Calm Calm - N/A   Clear
8:52 PM 64.9 °F 50.0 °F 58% 29.54 in 10.0 mi NW 18.4 mph 31.1 mph N/A   Partly Cloudy
9:00 PM 64.4 °F 48.2 °F 56% 29.57 in 10.0 mi NW 17.3 mph 26.5 mph N/A   Scattered Clouds
9:52 PM 61.0 °F 46.9 °F 60% 29.60 in 10.0 mi NNW 21.9 mph 34.5 mph N/A   Clear
10:52 PM 55.9 °F 46.9 °F 72% 29.64 in 10.0 mi NNW 15.0 mph - 0.00 in   Mostly Cloudy
11:52 PM 54.0 °F 46.0 °F 75% 29.66 in 10.0 mi NW 13.8 mph - N/A   Clear